Location: Taupo
(38.6830°S, 176.0830°E)
Time: 12:29:08
(UTC+12:00)

ISS - Visible Passes

Search period start: 17 May 2021 00:00
Search period end: 27 May 2021 00:00
Orbit: 417 x 422 km, 51.6° (Epoch: 16 May)

Date Brightness Start Highest point End Pass type
(mag) Time Alt. Az. Time Alt. Az. Time Alt. Az.
19 May -0.6 06:26:44 10° N 06:29:05 18° NE 06:31:28 10° E visible
21 May -2.9 06:27:22 10° NW 06:30:43 56° NE 06:34:05 10° ESE visible
22 May -1.8 05:40:17 10° NNW 05:43:20 31° NE 05:46:25 10° ESE visible
23 May -1.1 04:55:41 18° NE 04:56:01 18° NE 04:58:24 10° E visible
23 May -3.4 06:29:14 10° WNW 06:32:34 47° SW 06:35:55 10° SE visible
24 May -3.9 05:44:15 50° WNW 05:45:03 81° SW 05:48:31 10° SE visible
25 May -1.4 04:59:28 24° ESE 04:59:28 24° ESE 05:01:00 10° ESE visible
25 May -2.2 06:32:28 13° WSW 06:34:38 22° SSW 06:37:24 10° SSE visible
26 May -2.6 05:47:27 29° SSW 05:47:27 29° SSW 05:50:07 10° SE visible
